Location: Härggis
(46.9540°N, 8.4897°E)
Time: 23:55:14
(UTC+00:00)

NOSS 3-3 (A) - Pass Details

Date: 27 May 2022
Orbit: 779 x 1433 km, 63.4° (Epoch: 01 July)

Event Time Altitude Azimuth Distance (km) Brightness Sun altitude
Exits shadow 02:30:53 12° 214° (SSW) 2,306 5.3 -9.7°
Maximum altitude 02:36:08 83° 127° (SE) 918 3.9 -9.1°
Drops below altitude 10° 02:42:38 10° 41° (NE) 2,812 8.1 -8.3°
Sets 02:45:28 0° 41° (NE) 3,871 9.5 -8.0°
